Weather History for Springfield, MO

Change the Weather History Date:

Wednesday, January 19, 2011

  Actual Average Record
Temperature  
Mean Temperature 27 °F 32 °F  
Max Temperature 31 °F 43 °F 72 °F (1951)
Min Temperature 22 °F 22 °F -13 °F (1984)
Degree Days  
Heating Degree Days 38 32  
Month to date heating degree days 694 623  
Since 1 July heating degree days 2470 2433  
Cooling Degree Days 0 0  
Month to date cooling degree days 0 0  
Year to date cooling degree days 0 0  
Moisture  
Dew Point 22 °F    
Average Humidity 81    
Maximum Humidity 92    
Minimum Humidity 69    
Precipitation  
Precipitation 0.02 in 0.08 in 2.12 in (1990)
Month to date precipitation 0.18 1.58  
Year to date precipitation 0.18 1.58  
Snow  
Snow 0.10 in - - ()
Month to date snowfall 1.6  
Since 1 July snowfall 2.6  
Snow Depth 0.00 in    
Sea Level Pressure  
Sea Level Pressure 30.08 in    
Wind  
Wind Speed 7 mph (NE)    
Max Wind Speed 17 mph    
Max Gust Speed 21 mph    
Visibility 8 miles    
Events Snow    
T = Trace of Precipitation, MM = Missing Value Source: NWS Daily Summary

Daily Weather History Graph

Daily Weather History Graph

Search for Another Location

Airport:

Trip Planner

Search our weather history database for the weather conditions in past years. The results will help you decide how hot, cold, wet, or windy it might be!

Date:

Astronomy

Jan. 19, 2011 Rise Set
Actual Time 7:25 AM CST 5:23 PM CST
Civil Twilight 6:56 AM CST 5:52 PM CST
Nautical Twilight 6:24 AM CST 6:23 PM CST
Astronomical Twilight 5:53 AM CST 6:55 PM CST
Moon 5:32 PM CST (1/19) 7:04 AM CST (1/19)
Length of Visible Light 10h 55m
Length of Day
9h 58m
Full, 100% of the Moon is Illuminated
Jan 19
Full
Jan 19
Full
Jan 26
Last Quarter
Feb 2
New
Feb 11
First Quarter

Hourly Weather History & Observations

Time (CST) Temp. Windchill Dew Point Humidity Pressure Visibility Wind Dir Wind Speed Gust Speed Precip Events Conditions
12:52 AM 24.1 °F 13.7 °F 21.0 °F 88% 30.09 in 9.0 mi NNW 10.4 mph - N/A   Overcast
1:52 AM 24.1 °F 17.0 °F 21.0 °F 88% 30.08 in 10.0 mi NNW 5.8 mph - N/A   Overcast
2:52 AM 23.0 °F 17.0 °F 19.9 °F 88% 30.11 in 10.0 mi NNW 4.6 mph - N/A   Overcast
3:52 AM 23.0 °F 15.8 °F 19.9 °F 88% 30.11 in 10.0 mi NW 5.8 mph - N/A   Overcast
4:52 AM 23.0 °F 18.4 °F 19.9 °F 88% 30.13 in 10.0 mi WNW 3.5 mph - N/A   Overcast
5:52 AM 21.9 °F 14.5 °F 19.0 °F 89% 30.13 in 9.0 mi NNW 5.8 mph - N/A   Overcast
6:52 AM 21.9 °F 14.5 °F 19.0 °F 89% 30.12 in 8.0 mi NNE 5.8 mph - N/A   Overcast
7:52 AM 23.0 °F 17.0 °F 19.9 °F 88% 30.14 in 6.0 mi North 4.6 mph - N/A   Overcast
8:52 AM 23.0 °F 17.0 °F 19.9 °F 88% 30.17 in 6.0 mi NNW 4.6 mph - N/A   Overcast
9:12 AM 24.8 °F 20.5 °F 19.4 °F 80% 30.13 in 6.0 mi NW 3.5 mph - N/A   Overcast
9:52 AM 25.0 °F 18.1 °F 19.0 °F 78% 30.15 in 8.0 mi NE 5.8 mph - N/A   Overcast
10:52 AM 27.0 °F 23.0 °F 19.9 °F 75% 30.17 in 9.0 mi Variable 3.5 mph - N/A   Overcast
11:52 AM 27.0 °F 21.6 °F 19.9 °F 75% 30.13 in 10.0 mi East 4.6 mph - N/A   Mostly Cloudy
12:52 PM 28.9 °F 23.9 °F 21.0 °F 72% 30.11 in 10.0 mi ESE 4.6 mph - N/A   Mostly Cloudy
1:07 PM 28.4 °F 23.3 °F 21.2 °F 74% 30.05 in 10.0 mi NE 4.6 mph - N/A   Scattered Clouds
1:52 PM 28.9 °F 25.2 °F 21.0 °F 72% 30.08 in 10.0 mi East 3.5 mph - N/A   Mostly Cloudy
2:52 PM 30.0 °F 23.2 °F 21.9 °F 72% 30.07 in 10.0 mi East 6.9 mph - N/A   Mostly Cloudy
3:52 PM 30.0 °F 23.2 °F 21.9 °F 72% 30.07 in 10.0 mi ENE 6.9 mph - N/A   Mostly Cloudy
4:09 PM 30.2 °F 21.9 °F 21.2 °F 69% 30.01 in 10.0 mi East 9.2 mph - N/A   Mostly Cloudy
4:35 PM 30.2 °F 20.8 °F 23.0 °F 75% 30.00 in 10.0 mi ENE 11.5 mph - N/A   Mostly Cloudy
4:52 PM 30.0 °F 21.1 °F 23.0 °F 75% 30.04 in 10.0 mi ENE 10.4 mph - N/A   Mostly Cloudy
5:52 PM 30.0 °F 19.5 °F 23.0 °F 75% 30.03 in 10.0 mi East 13.8 mph - N/A   Overcast
6:52 PM 30.9 °F 21.2 °F 23.0 °F 72% 30.02 in 10.0 mi East 12.7 mph - N/A   Overcast
7:52 PM 30.0 °F 19.1 °F 23.0 °F 75% 30.00 in 10.0 mi East 15.0 mph - N/A   Overcast
8:52 PM 30.0 °F 23.2 °F 23.0 °F 75% 30.04 in 10.0 mi ENE 6.9 mph - N/A   Overcast
9:52 PM 30.0 °F 22.4 °F 23.0 °F 75% 30.07 in 10.0 mi NE 8.1 mph - N/A   Overcast
10:52 PM 30.0 °F 24.1 °F 24.1 °F 79% 30.08 in 5.0 mi North 5.8 mph - 0.00 in Snow Light Snow
11:08 PM 30.2 °F 22.6 °F 24.8 °F 80% 30.06 in 6.0 mi NNW 8.1 mph - 0.00 in Snow Light Snow
11:28 PM 28.4 °F 22.2 °F 24.8 °F 86% 30.06 in 1.8 mi NNE 5.8 mph - 0.01 in Snow Light Snow
11:35 PM 28.4 °F 22.2 °F 24.8 °F 86% 30.06 in 1.5 mi NNE 5.8 mph - 0.01 in Snow Light Snow
11:52 PM 28.0 °F 20.8 °F 26.1 °F 92% 30.10 in 1.8 mi NE 6.9 mph - 0.02 in Snow Light Snow